GW2857 Weather Reports


Display with metric or nautical units.
time (UTC)temp
F
wind
direction
speed
MPH
gust
MPH
rain 1hr
in
rain 24hr
in
rain mn
in
humidity
%
barometer
mb
20260507084015 43 0.0 1.0 0.00 0.43 0.01 95 1007.5
20260507083515 43 0.0 4.0 0.00 0.43 0.01 95 1007.4
20260507083015 43 0.0 1.0 0.00 0.43 0.01 95 1007.3
20260507082515 43 0.0 2.0 0.00 0.43 0.01 95 1007.2
20260507082015 43 0.0 0.0 0.00 0.43 0.01 95 1007.3
20260507081516 43 0.0 0.0 0.00 0.43 0.01 95 1007.3
20260507081016 43 0.0 0.0 0.00 0.43 0.01 95 1007.4
20260507080515 43 0.0 0.0 0.00 0.43 0.01 95 1007.5
20260507080015 43 0.0 0.0 0.00 0.43 0.01 95 1007.6
20260507075515 43 0.0 0.0 0.00 0.43 0.01 95 1007.7
20260507075016 43 0.0 0.0 0.00 0.43 0.01 95 1007.7
20260507074535 43 0.0 0.0 0.00 0.43 0.01 95 1007.6
20260507074016 43 0.0 0.0 0.00 0.43 0.01 95 1007.7
20260507073515 43 0.0 0.0 0.00 0.43 0.01 95 1007.6
20260507073015 43 0.0 0.0 0.00 0.44 0.01 95 1007.6
20260507072535 43 0.0 0.0 0.00 0.44 0.01 95 1007.6
20260507072015 43 0.0 0.0 0.00 0.44 0.01 95 1007.6
20260507071516 43 0.0 1.0 0.00 0.44 0.01 95 1007.6
20260507071015 43 0.0 0.0 0.00 0.44 0.01 95 1007.5
20260507070515 43 0.0 0.0 0.00 0.44 0.01 96 1007.4
20260507070015 43 0.0 0.0 0.00 0.44 0.01 96 1007.5
20260507065515 43 0.0 0.0 0.00 0.44 0.01 96 1007.5
20260507065016 43 0.0 0.0 0.00 0.44 0.01 96 1007.4
20260507064515 43 0.0 0.0 0.00 0.44 0.01 96 1007.4
20260507064015 43 0.0 0.0 0.00 0.44 0.01 96 1007.4
20260507063535 43 0.0 0.0 0.00 0.44 0.01 96 1007.2
20260507063015 43 0.0 1.0 0.00 0.44 0.01 96 1007.3
20260507062515 43 180 1.0 3.0 0.00 0.44 0.01 96 1007.3
20260507062015 43 0.0 1.0 0.00 0.45 0.01 96 1007.3
20260507061536 43 0.0 0.0 0.00 0.45 0.01 95 1007.2
20260507061015 43 0.0 0.0 0.00 0.45 0.01 95 1007.2
20260507060515 43 0.0 0.0 0.00 0.45 0.01 95 1007.3
20260507060155 43 0.0 0.0 0.00 0.45 0.01 95 1007.3
20260507055515 43 0.0 0.0 0.00 0.45 0.01 95 1007.3
20260507055015 43 0.0 0.0 0.00 0.45 0.01 95 1007.4
20260507054521 43 0.0 0.0 0.00 0.45 0.01 95 1007.6
20260507054015 43 0.0 1.0 0.00 0.45 0.01 95 1007.6
20260507053535 43 0.0 0.0 0.00 0.45 0.01 95 1007.4
20260507053015 43 0.0 0.0 0.00 0.45 0.01 95 1007.6
20260507052515 43 0.0 0.0 0.00 0.45 0.01 95 1007.8
20260507052015 43 0.0 0.0 0.00 0.45 0.01 95 1007.9
20260507051517 43 0.0 0.0 0.00 0.45 0.01 95 1007.8
20260507051015 43 0.0 0.0 0.00 0.45 0.01 95 1007.8
20260507050515 43 0.0 0.0 0.00 0.45 0.01 95 1008.0
20260507050015 43 0.0 0.0 0.01 0.45 0.01 95 1008.1
20260507045515 43 0.0 0.0 0.01 0.45 0.01 95 1008.2
20260507045015 43 0.0 0.0 0.01 0.45 0.01 95 1008.1
20260507044515 43 0.0 0.0 0.01 0.45 0.01 95 1008.1
20260507044036 43 0.0 0.0 0.01 0.45 0.01 95 1008.3
20260507043515 43 0.0 2.0 0.01 0.45 0.01 95 1008.3
20260507043015 43 0.0 0.0 0.01 0.45 0.01 95 1008.2
20260507042515 43 0.0 0.0 0.01 0.45 0.01 95 1008.0
20260507042015 43 0.0 0.0 0.01 0.45 0.01 95 1008.0
20260507041516 43 0.0 0.0 0.01 0.45 0.01 95 1008.1
20260507041015 43 0.0 0.0 0.01 0.46 0.01 95 1008.3
20260507040516 43 0.0 0.0 0.01 0.46 0.01 95 1008.4
20260507040015 43 0.0 0.0 0.00 0.45 0.45 95 1008.1
20260507035515 43 0.0 1.0 0.00 0.45 0.45 95 1008.0
20260507035015 43 0.0 0.0 0.00 0.45 0.45 95 1008.0
20260507034515 43 0.0 0.0 0.00 0.45 0.45 95 1008.1
20260507034016 43 0.0 0.0 0.00 0.45 0.45 95 1008.2
20260507033516 43 0.0 0.0 0.00 0.45 0.45 95 1008.1
20260507033015 43 0.0 0.0 0.00 0.45 0.45 95 1008.0
20260507032516 43 0.0 0.0 0.00 0.46 0.45 95 1008.1
20260507032021 43 0.0 0.0 0.00 0.47 0.45 95 1007.9
20260507031515 43 0.0 0.0 0.00 0.47 0.45 95 1007.8
20260507031015 43 0.0 0.0 0.00 0.47 0.45 95 1007.9
20260507030515 43 0.0 0.0 0.00 0.47 0.45 95 1008.2
20260507030016 43 0.0 0.0 0.00 0.47 0.45 95 1008.2
20260507025515 43 0.0 0.0 0.00 0.47 0.45 95 1008.3
20260507025015 43 0.0 0.0 0.00 0.47 0.45 95 1008.2
20260507024521 43 0.0 0.0 0.00 0.47 0.45 95 1007.9
20260507024015 43 0.0 0.0 0.00 0.47 0.45 95 1007.7
20260507023516 43 0.0 0.0 0.00 0.47 0.45 95 1007.8
20260507023015 43 0.0 0.0 0.00 0.47 0.45 95 1008.0
20260507022515 43 0.0 0.0 0.00 0.47 0.45 95 1008.1
20260507022035 43 0.0 0.0 0.00 0.47 0.45 95 1008.3
20260507021515 43 0.0 0.0 0.00 0.47 0.45 95 1008.4
20260507021015 43 0.0 0.0 0.00 0.47 0.45 95 1008.3
20260507020515 43 0.0 0.0 0.01 0.47 0.45 95 1008.3
20260507020015 43 0.0 0.0 0.01 0.47 0.45 95 1008.5
20260507015516 44 0.0 0.0 0.01 0.47 0.45 95 1008.4
20260507015015 44 0.0 0.0 0.02 0.47 0.45 95 1008.4
20260507014515 44 0.0 0.0 0.02 0.47 0.45 95 1008.3
20260507014015 44 0.0 0.0 0.03 0.47 0.45 95 1008.3
20260507013515 44 0.0 0.0 0.03 0.47 0.45 95 1008.2
20260507013015 44 0.0 0.0 0.03 0.47 0.45 95 1008.2
20260507012515 44 0.0 0.0 0.03 0.47 0.45 95 1008.3
20260507012021 44 0.0 0.0 0.03 0.47 0.45 95 1008.3
20260507011520 44 0.0 0.0 0.03 0.47 0.45 95 1008.1
20260507011015 44 0.0 0.0 0.03 0.47 0.45 95 1008.1
20260507010520 44 0.0 0.0 0.03 0.46 0.44 94 1008.2
20260507010015 44 0.0 0.0 0.03 0.46 0.44 95 1008.3
20260507005535 44 0.0 0.0 0.03 0.46 0.44 94 1008.3
20260507005015 44 0.0 1.0 0.03 0.45 0.43 94 1008.4
20260507004536 44 0.0 0.0 0.03 0.45 0.43 95 1008.3
20260507004035 44 0.0 0.0 0.02 0.44 0.42 95 1008.3
20260507003515 44 0.0 0.0 0.02 0.44 0.42 95 1008.1
20260507003035 44 0.0 0.0 0.02 0.44 0.42 95 1008.1
20260507002515 44 0.0 0.0 0.02 0.44 0.42 95 1007.9
20260507002015 44 0.0 0.0 0.02 0.44 0.42 95 1007.9
20260507001516 44 0.0 0.0 0.02 0.44 0.42 95 1007.7
20260507001015 44 0.0 2.0 0.02 0.44 0.42 95 1007.6
20260507000515 44 0.0 1.0 0.01 0.43 0.41 95 1007.6
20260507000015 44 0.0 0.0 0.01 0.43 0.41 95 1007.4
20260506235515 44 0.0 0.0 0.01 0.43 0.41 95 1007.3
20260506235016 44 0.0 0.0 0.01 0.42 0.40 94 1007.3
20260506234515 44 0.0 0.0 0.01 0.42 0.40 95 1007.3
20260506234015 44 0.0 0.0 0.01 0.42 0.40 95 1007.2
20260506233515 44 0.0 1.0 0.01 0.42 0.40 94 1007.1
20260506233015 44 0.0 1.0 0.01 0.42 0.40 95 1007.0
20260506232535 44 0.0 0.0 0.01 0.42 0.40 95 1006.9
20260506232016 44 0.0 0.0 0.01 0.42 0.40 94 1006.9
20260506231515 44 0.0 0.0 0.01 0.42 0.40 95 1006.7
20260506231015 44 0.0 0.0 0.01 0.42 0.40 95 1006.6
20260506230515 44 0.0 0.0 0.01 0.42 0.40 95 1006.9
20260506230020 44 0.0 1.0 0.01 0.42 0.40 95 1006.7
20260506225515 44 0.0 0.0 0.01 0.42 0.40 95 1006.7
20260506225015 44 0.0 0.0 0.00 0.41 0.39 95 1006.8
20260506224515 44 0.0 1.0 0.00 0.41 0.39 95 1006.8
20260506224015 44 0.0 1.0 0.01 0.41 0.39 95 1006.6
20260506223515 44 338 1.0 3.0 0.01 0.41 0.39 95 1006.7
20260506223015 44 0.0 1.0 0.01 0.41 0.39 95 1006.6
20260506222516 44 0 1.0 3.0 0.01 0.41 0.39 95 1006.6
20260506222015 44 0.0 4.0 0.01 0.41 0.39 95 1006.5
20260506221515 44 338 1.0 4.0 0.01 0.41 0.39 95 1006.4
20260506221015 44 338 1.0 2.0 0.01 0.41 0.39 94 1006.6
20260506220535 44 338 2.0 3.0 0.01 0.41 0.39 95 1006.8
20260506220015 44 338 1.0 5.0 0.01 0.41 0.39 95 1006.7
20260506215515 44 0.0 1.0 0.01 0.41 0.39 95 1006.6
20260506215015 44 338 3.0 4.0 0.01 0.41 0.39 95 1006.5
20260506214516 44 338 2.0 4.0 0.02 0.41 0.39 95 1006.5
20260506214015 44 338 1.0 3.0 0.01 0.40 0.38 95 1006.4
20260506213515 44 338 1.0 3.0 0.01 0.40 0.38 95 1006.4
20260506213015 44 338 2.0 5.0 0.01 0.40 0.38 95 1006.5
20260506212515 44 338 2.0 5.0 0.01 0.40 0.38 95 1006.4
20260506212018 44 0 1.0 3.0 0.01 0.40 0.38 95 1006.5
20260506211517 44 0.0 2.0 0.01 0.40 0.38 95 1006.3
20260506211037 44 0.0 1.0 0.01 0.40 0.38 95 1006.2
20260506210517 44 338 1.0 3.0 0.01 0.40 0.38 94 1006.1
20260506210017 44 338 1.0 4.0 0.01 0.40 0.38 94 1006.1
20260506205517 44 338 3.0 4.0 0.01 0.40 0.38 94 1006.1
20260506205017 44 338 2.0 5.0 0.01 0.40 0.38 94 1006.2
20260506204518 44 315 1.0 4.0 0.00 0.39 0.37 94 1006.2
20260506204017 44 0.0 1.0 0.00 0.39 0.37 94 1006.1
20260506203517 44 0.0 1.0 0.00 0.39 0.37 94 1006.1
20260506203037 44 315 1.0 3.0 0.01 0.39 0.37 94 1006.1
20260506202517 44 0.0 2.0 0.01 0.39 0.37 94 1006.1
20260506202036 44 338 1.0 4.0 0.01 0.39 0.37 94 1006.2
20260506201516 44 338 1.0 3.0 0.01 0.39 0.37 94 1006.2
20260506201017 45 338 1.0 3.0 0.02 0.39 0.37 94 1006.1
20260506200516 45 0.0 0.0 0.02 0.39 0.37 94 1006.1
20260506200017 45 0.0 0.0 0.02 0.39 0.37 94 1006.0
20260506195517 45 338 2.0 4.0 0.02 0.39 0.37 94 1006.0
20260506195017 45 0.0 2.0 0.03 0.39 0.37 94 1006.1
20260506194517 45 315 1.0 2.0 0.03 0.39 0.37 94 1006.1
20260506194017 45 0.0 1.0 0.03 0.39 0.37 94 1006.0
20260506193517 45 0.0 1.0 0.03 0.39 0.37 94 1006.0
20260506193017 45 0.0 0.0 0.02 0.38 0.36 94 1006.1
20260506192537 45 0.0 1.0 0.02 0.39 0.36 94 1006.0
20260506192017 45 0.0 0.0 0.02 0.39 0.36 94 1006.1
20260506191516 45 0.0 2.0 0.02 0.42 0.36 94 1006.1
20260506191017 44 0.0 0.0 0.01 0.41 0.35 94 1006.0
20260506190517 44 0.0 1.0 0.01 0.41 0.35 94 1006.1
20260506190017 44 0.0 2.0 0.01 0.41 0.35 94 1006.3
20260506185517 44 338 3.0 4.0 0.01 0.41 0.35 94 1006.2
20260506185037 44 0.0 2.0 0.00 0.40 0.34 94 1006.2
20260506184537 44 0 1.0 4.0 0.00 0.40 0.34 94 1006.3
20260506184017 44 338 1.0 3.0 0.00 0.40 0.34 94 1006.4
20260506183516 44 338 2.0 4.0 0.01 0.40 0.34 94 1006.3
20260506183016 44 338 2.0 4.0 0.01 0.40 0.34 94 1006.3
20260506182516 44 338 2.0 4.0 0.01 0.40 0.34 94 1006.4
20260506182017 44 338 2.0 4.0 0.02 0.40 0.34 94 1006.3
20260506181517 44 338 2.0 4.0 0.02 0.40 0.34 94 1006.3
20260506181016 44 315 1.0 5.0 0.03 0.40 0.34 94 1006.3
20260506180517 44 0.0 1.0 0.03 0.40 0.34 94 1006.4
20260506180016 44 338 2.0 5.0 0.03 0.40 0.34 94 1006.5
20260506175516 44 338 1.0 3.0 0.04 0.40 0.34 94 1006.5
20260506175016 44 0.0 3.0 0.04 0.40 0.34 94 1006.5
20260506174536 44 338 2.0 4.0 0.04 0.40 0.34 94 1006.6
20260506174016 44 338 1.0 4.0 0.04 0.40 0.34 94 1006.6
20260506173517 44 338 1.0 3.0 0.04 0.39 0.33 94 1006.6
20260506173017 43 0.0 1.0 0.04 0.39 0.33 94 1006.5
20260506172516 44 338 1.0 4.0 0.04 0.39 0.33 94 1006.8
20260506172056 44 0.0 2.0 0.04 0.38 0.32 94 1007.0
20260506171517 44 0.0 2.0 0.04 0.38 0.32 94 1007.0
20260506171017 44 338 1.0 3.0 0.04 0.37 0.31 94 1006.9
20260506170516 44 0.0 1.0 0.04 0.37 0.31 94 1007.0
20260506170016 44 315 2.0 4.0 0.05 0.37 0.31 94 1006.9
20260506165516 44 315 3.0 5.0 0.05 0.36 0.30 94 1006.8
20260506165016 44 315 2.0 4.0 0.06 0.36 0.30 94 1006.9
20260506164516 44 0.0 1.0 0.06 0.36 0.30 94 1006.7
20260506164116 44 338 2.0 4.0 0.07 0.36 0.30 94 1006.8
20260506163516 44 338 1.0 2.0 0.07 0.35 0.29 94 1006.9
20260506163017 44 0.0 1.0 0.08 0.35 0.29 94 1006.9
20260506162516 44 338 2.0 4.0 0.09 0.35 0.29 94 1007.0
20260506162016 44 0.0 1.0 0.08 0.34 0.28 94 1007.0
20260506161516 44 338 2.0 4.0 0.09 0.34 0.28 93 1007.1
20260506161016 44 0.0 2.0 0.08 0.33 0.27 93 1007.1
20260506160517 44 0.0 2.0 0.09 0.33 0.27 93 1007.2
20260506160017 44 338 1.0 3.0 0.09 0.32 0.26 93 1007.4
20260506155516 44 0.0 2.0 0.08 0.31 0.25 93 1007.5
20260506155036 44 0.0 1.0 0.08 0.30 0.24 93 1007.5
20260506154516 44 338 1.0 4.0 0.09 0.30 0.24 93 1007.5
20260506154036 44 0.0 1.0 0.09 0.29 0.23 93 1007.5
20260506153517 44 338 1.0 3.0 0.08 0.28 0.22 93 1007.7
20260506153016 44 315 1.0 3.0 0.07 0.27 0.21 93 1007.7
20260506152517 44 338 1.0 4.0 0.07 0.26 0.20 93 1007.8
20260506152036 44 0.0 1.0 0.07 0.26 0.20 93 1007.5
20260506151516 44 0.0 0.0 0.06 0.25 0.19 93 1007.6
20260506151016 44 338 1.0 3.0 0.06 0.25 0.19 93 1007.6
20260506150516 44 338 1.0 4.0 0.05 0.24 0.18 93 1007.6
20260506150036 44 0.0 1.0 0.05 0.23 0.17 93 1007.5
20260506145537 44 0.0 2.0 0.05 0.23 0.17 93 1007.5
20260506145016 44 0.0 3.0 0.04 0.22 0.16 92 1007.5
20260506144516 44 0.0 1.0 0.03 0.21 0.15 93 1007.4
20260506144016 44 0.0 1.0 0.03 0.20 0.14 92 1007.5
20260506143516 44 338 1.0 3.0 0.04 0.20 0.14 92 1007.5
20260506143016 44 338 2.0 4.0 0.04 0.20 0.14 92 1007.5
20260506142517 44 0.0 0.0 0.04 0.19 0.13 92 1007.5
20260506142016 44 0.0 1.0 0.05 0.19 0.13 92 1007.4
20260506141516 44 0.0 0.0 0.05 0.19 0.13 92 1007.6
20260506141016 44 355 0.0 0.0 0.05 0.19 0.13 92 1007.6
20260506140516 44 338 1.0 3.0 0.06 0.19 0.13 92 1007.6
20260506140016 45 0.0 2.0 0.05 0.18 0.12 92 1007.5
20260506135517 45 338 2.0 3.0 0.06 0.18 0.12 93 1007.3
20260506135016 45 338 1.0 3.0 0.06 0.18 0.12 92 1007.4
20260506134521 45 0.0 1.0 0.07 0.18 0.12 92 1007.6
20260506134017 45 0.0 1.0 0.06 0.17 0.11 92 1007.6
20260506133516 45 0.0 1.0 0.06 0.16 0.10 92 1007.4
20260506133016 45 0 2.0 4.0 0.06 0.16 0.10 92 1007.4
20260506132537 45 0.0 1.0 0.05 0.15 0.09 91 1007.4
20260506132016 45 338 1.0 6.0 0.04 0.14 0.08 91 1007.5
20260506131516 45 203 1.0 3.0 0.04 0.14 0.08 91 1006.9
20260506131036 45 0 1.0 4.0 0.05 0.14 0.08 91 1007.7
20260506130516 45 0.0 0.0 0.04 0.13 0.07 91 1007.0
20260506130017 45 0.0 1.0 0.04 0.13 0.07 91 1007.3
20260506125516 45 338 2.0 3.0 0.03 0.12 0.06 90 1007.6
20260506125016 46 0.0 2.0 0.03 0.12 0.06 90 1007.6
20260506124516 46 315 2.0 4.0 0.02 0.11 0.05 90 1007.5
20260506124016 46 338 1.0 4.0 0.02 0.11 0.05 90 1007.6
20260506123516 46 338 2.0 4.0 0.01 0.10 0.04 89 1007.7
20260506123016 46 0.0 1.0 0.01 0.10 0.04 89 1007.4
20260506122517 46 315 1.0 3.0 0.01 0.10 0.04 89 1007.3
20260506122016 47 338 2.0 4.0 0.01 0.10 0.04 89 1007.9
20260506121536 47 338 3.0 10.0 0.01 0.10 0.04 89 1007.5
20260506121016 47 338 2.0 4.0 0.00 0.09 0.03 89 1007.6
20260506120516 47 338 2.0 4.0 0.00 0.09 0.03 88 1007.6
20260506120016 47 0.0 2.0 0.00 0.09 0.03 88 1007.4
20260506115517 48 338 1.0 4.0 0.00 0.09 0.03 87 1007.3
20260506115016 48 338 1.0 4.0 0.00 0.09 0.03 87 1007.6
20260506114516 48 338 2.0 4.0 0.00 0.09 0.03 87 1007.4
20260506114016 48 338 2.0 4.0 0.00 0.09 0.03 87 1007.5
20260506113516 48 338 2.0 5.0 0.00 0.09 0.03 87 1007.6
20260506113016 48 0.0 1.0 0.00 0.09 0.03 87 1007.4
20260506112516 48 0.0 3.0 0.00 0.09 0.03 87 1007.3
20260506112016 48 338 1.0 3.0 0.00 0.09 0.03 87 1007.6
20260506111516 48 0 1.0 3.0 0.00 0.09 0.03 87 1007.2
20260506111016 49 0.0 1.0 0.00 0.09 0.03 87 1007.3
20260506110516 49 0.0 2.0 0.00 0.09 0.03 88 1007.6
20260506110036 49 338 2.0 3.0 0.00 0.09 0.03 88 1007.6
20260506105537 49 338 3.0 6.0 0.00 0.09 0.03 88 1007.4
20260506105016 50 338 1.0 3.0 0.00 0.09 0.03 88 1007.2
20260506104516 50 338 3.0 5.0 0.00 0.09 0.03 88 1007.0
20260506104016 50 315 2.0 4.0 0.00 0.09 0.03 89 1007.0
20260506103516 51 338 2.0 5.0 0.00 0.09 0.03 89 1006.9
20260506103036 51 338 1.0 2.0 0.00 0.09 0.03 89 1006.8
20260506102516 51 315 1.0 2.0 0.00 0.09 0.03 89 1006.8
20260506102016 51 338 1.0 3.0 0.00 0.09 0.03 90 1006.7
20260506101516 51 338 1.0 3.0 0.00 0.09 0.03 90 1006.7
20260506101035 51 338 1.0 3.0 0.00 0.09 0.03 90 1006.7
20260506100516 51 338 1.0 3.0 0.00 0.09 0.03 90 1006.5
20260506100016 52 0.0 1.0 0.00 0.09 0.03 90 1006.7
20260506095517 52 0.0 1.0 0.00 0.09 0.03 91 1006.7
20260506095016 52 338 1.0 4.0 0.00 0.09 0.03 91 1007.2
20260506094516 52 0.0 2.0 0.00 0.09 0.03 91 1007.0
20260506094016 52 0.0 2.0 0.00 0.09 0.03 91 1007.1
20260506093516 52 0.0 0.0 0.00 0.09 0.03 91 1006.6
20260506093016 52 338 1.0 5.0 0.00 0.09 0.03 92 1008.2
20260506092516 53 0.0 1.0 0.00 0.09 0.03 92 1007.5
20260506092016 53 0.0 0.0 0.00 0.09 0.03 92 1007.2
20260506091515 54 0.0 0.0 0.00 0.09 0.03 92 1007.4
20260506091036 54 0.0 1.0 0.00 0.09 0.03 92 1007.3
20260506090515 54 0.0 0.0 0.00 0.09 0.03 92 1007.1
20260506090055 54 0.0 0.0 0.00 0.09 0.03 92 1007.2
20260506085516 54 0.0 0.0 0.00 0.09 0.03 92 1007.2
20260506085035 54 0.0 0.0 0.00 0.09 0.03 91 1007.0
20260506084516 54 0.0 0.0 0.00 0.09 0.03 91 1007.1